Date,TemperatureHighF,TemperatureAvgF,TemperatureLowF,DewpointHighF,DewpointAvgF,DewpointLowF,HumidityHigh,HumidityAvg,HumidityLow,PressureMaxIn,PressureMinIn,WindSpeedMaxMPH,WindSpeedAvgMPH,GustSpeedMaxMPH,PrecipitationSumIn
2013-1-1,52,49,44,51,42,30,98,80,51,30.11,29.94,11,3,16,0.20
2013-1-2,51,46,41,50,44,39,98,92,80,30.18,29.91,7,2,11,0.43
2013-1-3,45,41,34,39,37,33,97,88,71,30.25,30.14,4,1,7,0.02
2013-1-4,52,40,29,33,28,23,98,66,36,30.31,30.19,8,2,14,0.01
2013-1-5,52,41,29,30,26,23,79,57,37,30.39,30.26,6,2,9,0.01
2013-1-6,49,43,36,42,37,30,98,78,58,30.27,30.05,7,2,9,0.01
2013-1-7,53,42,33,36,33,31,95,73,48,30.42,30.16,8,2,14,0.01
2013-1-8,58,45,33,43,38,31,94,76,50,30.45,30.36,4,1,6,0.00
2013-1-9,68,53,39,53,47,38,97,79,55,30.44,30.35,6,1,9,0.00
2013-1-10,64,56,50,51,48,39,96,73,56,30.53,30.40,5,2,12,0.00
2013-1-11,53,49,42,52,44,34,98,86,55,30.43,30.15,5,2,10,0.33
2013-1-12,73,58,49,65,56,49,99,94,75,30.17,30.10,4,1,9,0.01
2013-1-13,76,63,53,64,59,53,99,86,62,30.14,30.06,10,3,14,0.01
2013-1-14,73,65,56,65,61,55,97,86,74,30.16,30.08,9,3,14,0.01
2013-1-15,65,49,46,62,48,45,98,96,87,30.22,30.05,7,3,14,0.01
2013-1-16,51,48,45,51,47,44,99,99,98,30.05,29.98,5,2,10,0.20
2013-1-17,52,48,34,52,47,33,99,98,93,30.12,29.86,15,4,33,0.96
2013-1-18,48,38,29,35,30,24,98,77,43,30.53,30.12,8,2,13,0.67
2013-1-19,56,41,28,37,30,25,92,66,36,30.50,30.16,9,3,12,0.02
2013-1-20,65,51,41,38,35,31,76,56,33,30.16,29.98,8,3,13,0.00
2013-1-21,60,48,34,34,31,22,84,54,33,30.08,29.87,8,2,13,0.00
2013-1-22,43,35,26,24,10,0,52,36,19,30.27,29.95,10,3,19,0.00
2013-1-23,42,30,19,19,11,4,71,45,30,30.37,30.07,8,2,14,0.00
2013-1-24,38,33,25,29,17,4,75,54,26,30.50,29.96,13,5,24,0.00
2013-1-25,28,24,19,26,16,6,94,71,45,30.52,30.11,5,1,9,0.00
2013-1-26,43,31,25,35,29,24,97,92,63,30.39,30.09,4,1,9,0.27
2013-1-27,42,33,27,31,28,26,97,85,59,30.58,30.38,5,2,13,0.06
2013-1-28,54,43,34,50,38,29,92,81,72,30.50,30.23,8,3,11,0.04
2013-1-29,75,60,49,60,53,46,94,79,55,30.24,30.07,12,4,16,0.01
2013-1-30,72,67,60,66,63,57,97,87,75,30.08,29.42,23,12,38,0.03
2013-1-31,68,47,36,65,28,21,91,49,31,30.02,29.44,12,6,30,0.18
2013-2-1,43,37,27,30,16,4,67,45,24,30.37,29.90,14,6,29,0.03
2013-2-2,46,34,20,38,16,8,86,49,27,30.40,30.03,16,4,23,0.00
2013-2-3,51,43,36,38,32,26,92,68,43,30.03,29.85,8,3,21,0.00
2013-2-4,50,39,27,29,25,22,85,60,37,30.14,29.98,6,2,9,0.00
2013-2-5,63,48,36,40,35,28,85,61,38,30.02,29.86,11,3,15,0.00
2013-2-6,64,50,36,38,32,24,89,53,22,30.27,29.96,8,2,14,0.00
2013-2-7,49,44,38,44,39,34,97,85,64,30.31,29.95,7,4,15,0.30
2013-2-8,56,46,41,47,42,31,97,85,58,30.04,29.78,11,6,21,0.84
2013-2-9,54,42,34,31,25,20,82,54,27,30.35,30.04,9,3,16,0.01
2013-2-10,54,42,28,41,25,21,82,54,28,30.48,30.21,9,3,15,0.03
2013-2-11,63,58,46,61,55,42,98,91,82,30.21,29.93,14,6,22,0.08
2013-2-12,61,54,48,54,39,29,95,60,30,30.09,29.90,6,2,12,0.01
2013-2-13,51,47,44,47,44,36,97,92,57,29.95,29.61,7,2,15,0.09
2013-2-14,52,44,34,39,35,32,94,73,51,30.06,29.83,5,2,12,0.01
2013-2-15,63,47,33,41,34,31,96,66,32,30.09,29.92,8,2,11,0.00
2013-2-16,48,38,32,38,33,26,97,85,64,29.95,29.80,6,3,15,0.19
2013-2-17,39,31,27,26,16,9,83,54,30,30.26,29.90,12,5,22,0.03
2013-2-18,52,36,20,27,19,12,91,53,28,30.40,30.27,9,3,14,0.08
2013-2-19,53,43,35,50,39,27,94,83,66,30.27,29.86,17,6,27,0.04
2013-2-20,54,44,35,41,23,16,94,46,25,30.12,29.96,7,3,13,0.03
2013-2-21,56,42,26,23,20,16,74,42,22,30.24,30.10,6,2,11,0.00
2013-2-22,44,37,33,35,32,24,95,84,45,30.34,30.19,5,2,10,0.44
2013-2-23,44,42,40,43,42,39,97,97,97,29.96,29.81,6,2,10,0.78
2013-2-24,63,51,43,48,39,28,98,70,31,30.03,29.79,7,2,14,0.02
2013-2-25,46,39,34,31,26,22,70,59,49,30.22,30.03,7,3,13,0.02
2013-2-26,52,40,37,49,36,28,97,84,67,30.12,29.62,9,4,20,1.07
2013-2-27,60,50,43,46,42,39,97,76,49,29.79,29.62,11,4,16,0.02
2013-2-28,50,44,39,41,34,28,93,68,43,29.84,29.70,7,3,15,0.00
2013-3-1,49,38,31,33,30,27,86,71,46,29.90,29.83,7,2,13,0.00
2013-3-2,49,40,29,31,27,21,91,63,44,29.91,29.80,8,2,15,0.00
2013-3-3,46,36,28,24,22,19,73,56,40,29.96,29.83,9,4,16,0.00
2013-3-4,51,38,26,21,18,15,75,49,25,30.10,29.96,10,3,16,0.00
2013-3-5,50,44,37,46,35,20,96,72,41,30.07,29.57,10,3,15,0.34
2013-3-6,50,44,39,49,34,27,98,71,51,30.01,29.50,13,8,28,0.20
2013-3-7,52,43,35,33,31,27,81,62,46,30.22,30.01,9,4,18,0.00
2013-3-8,56,44,32,31,27,25,80,54,32,30.27,30.13,13,4,20,0.00
2013-3-9,63,48,35,32,29,27,75,51,27,30.32,30.22,6,2,13,0.00
2013-3-10,67,52,35,34,28,19,90,45,18,30.32,30.20,9,2,14,0.00
2013-3-11,70,56,43,55,45,26,88,68,38,30.24,29.94,13,6,22,0.00
2013-3-12,72,63,53,63,55,35,97,78,49,29.94,29.74,15,7,24,0.35
2013-3-13,59,48,36,36,29,22,84,49,27,30.11,29.93,11,5,23,0.01
2013-3-14,54,42,30,24,21,19,65,44,28,30.23,30.10,11,4,19,0.00
2013-3-15,41,37,32,24,22,21,68,56,44,30.16,30.13,2,1,5,0.00
2013-3-16,79,71,56,50,47,44,65,44,34,29.85,29.67,17,7,22,0.00
2013-3-17,66,55,44,54,45,39,95,71,45,30.15,29.83,7,3,16,0.00
2013-3-18,45,42,39,43,40,38,97,95,87,30.18,29.89,6,3,12,0.22
2013-3-19,67,52,42,49,37,17,98,66,21,30.00,29.81,10,4,18,0.25
2013-3-20,56,49,42,24,16,11,48,28,20,30.12,29.78,8,3,14,0.00
2013-3-21,45,39,33,32,22,13,73,52,30,29.96,29.72,9,4,20,0.00
2013-3-22,53,40,25,24,17,13,68,42,24,30.08,29.96,8,3,17,0.00
2013-3-23,56,47,39,33,27,22,73,46,34,30.04,29.90,3,1,6,0.00
2013-3-24,44,40,36,40,36,30,95,86,64,29.94,29.55,7,3,17,0.51
2013-3-25,49,41,37,39,32,25,97,74,41,29.81,29.54,12,4,27,0.03
2013-3-26,49,42,34,31,28,26,76,58,46,30.09,29.81,8,4,17,0.00
2013-3-27,53,43,34,31,26,22,80,54,32,30.22,30.09,11,4,22,0.00
2013-3-28,57,44,31,30,26,24,80,51,29,30.28,30.14,11,4,19,0.00
2013-3-29,60,47,31,33,28,25,89,51,28,30.32,30.17,7,2,14,0.00
2013-3-30,65,55,45,46,39,29,74,54,41,30.24,30.08,8,2,11,0.00
2013-3-31,70,58,48,58,50,-100,97,81,63,30.10,29.81,12,5,18,0.28
2013-4-1,73,62,56,56,49,40,98,68,32,29.93,29.81,7,3,19,0.12
2013-4-2,61,52,41,41,31,28,75,47,30,30.15,29.93,8,3,17,0.05
2013-4-3,61,52,44,34,24,19,63,36,23,30.28,30.11,7,3,14,0.00
2013-4-4,49,44,39,41,34,25,96,73,42,30.33,29.89,7,4,16,0.98
2013-4-5,65,49,40,49,44,39,97,85,54,30.01,29.86,7,3,12,0.62
2013-4-6,66,55,45,45,36,26,96,52,29,30.27,30.01,8,3,18,0.01
2013-4-7,73,56,36,50,41,34,95,60,34,30.28,30.11,11,4,19,0.00
2013-4-8,80,66,54,59,54,50,97,68,40,30.18,30.06,10,5,18,0.00
2013-4-9,85,71,57,62,59,56,97,67,40,30.19,30.07,10,5,16,0.00
2013-4-10,87,75,62,64,61,58,90,64,41,30.12,29.96,13,6,19,0.00
2013-4-11,83,72,61,68,62,59,96,73,47,30.01,29.81,13,7,25,0.00
2013-4-12,82,73,67,70,65,52,96,78,50,29.83,29.62,13,8,26,0.51
2013-4-13,76,66,54,52,43,40,61,46,29,30.00,29.76,8,3,14,0.21
2013-4-14,80,66,47,54,46,39,96,55,23,30.10,30.00,8,3,15,0.00
2013-4-15,71,66,60,60,57,53,90,75,61,30.20,30.01,10,2,16,0.01
2013-4-16,78,66,59,64,60,58,98,81,52,30.30,30.19,6,2,9,0.01
2013-4-17,83,71,59,66,63,58,98,78,55,30.24,30.11,9,3,15,0.00
2013-4-18,80,70,61,64,61,59,96,74,53,30.20,30.05,12,6,18,0.00
2013-4-19,84,72,65,69,66,63,97,83,60,30.06,29.74,18,9,39,0.56
2013-4-20,65,57,50,64,44,35,97,65,35,30.26,29.83,10,4,20,0.62
2013-4-21,64,52,42,45,42,39,97,71,47,30.47,30.26,7,3,21,0.01
2013-4-22,61,50,39,47,41,34,89,71,48,30.46,30.24,10,4,17,0.00
2013-4-23,67,54,48,52,48,45,94,82,57,30.26,30.13,6,4,14,0.02
2013-4-24,78,64,49,58,54,48,97,72,47,30.16,29.98,14,6,21,0.01
2013-4-25,72,62,53,58,49,43,87,64,40,30.27,30.02,8,2,12,0.00
2013-4-26,72,62,52,54,45,34,97,62,26,30.42,30.27,8,2,12,0.00
2013-4-27,74,63,53,53,47,41,80,58,33,30.38,30.26,8,2,12,0.00
2013-4-28,63,59,56,57,50,-100,97,76,61,30.27,30.10,6,2,12,0.71
2013-4-29,74,64,56,65,61,55,98,90,69,30.10,29.97,6,2,15,1.76
2013-4-30,68,63,60,62,61,59,98,94,78,30.12,30.00,5,2,10,0.01
2013-5-1,60,59,58,58,57,56,97,94,91,30.30,30.16,6,3,13,0.01
2013-5-2,65,60,56,59,57,54,96,90,79,30.31,30.25,5,2,11,0.01
2013-5-3,71,60,51,58,52,45,95,76,54,30.25,30.15,7,3,14,0.00
2013-5-4,66,57,50,54,50,45,90,79,62,30.19,30.06,7,4,16,0.00
2013-5-5,61,56,51,58,53,48,92,88,83,30.08,29.96,6,4,15,0.00
2013-5-6,74,62,57,67,59,54,98,92,74,29.98,29.82,14,3,19,1.13
2013-5-7,73,60,52,59,53,48,98,79,43,29.95,29.85,11,3,18,0.18
2013-5-8,76,63,53,61,57,51,97,81,57,30.01,29.92,9,2,14,0.17
2013-5-9,81,68,54,62,59,54,99,76,47,30.07,29.98,5,1,11,0.14
2013-5-10,87,73,58,64,58,-100,95,64,39,30.07,29.96,12,4,18,0.00
2013-5-11,84,75,68,68,64,60,90,70,48,29.98,29.80,13,6,21,0.02
2013-5-12,72,64,58,64,52,-100,94,71,39,30.01,29.80,6,3,12,0.05
2013-5-13,67,58,49,43,38,34,75,49,31,30.16,30.01,7,2,18,0.01
2013-5-14,72,58,40,45,41,36,96,56,31,30.26,30.09,6,2,14,0.00
2013-5-15,90,72,55,64,56,44,85,59,39,30.09,29.91,9,4,18,0.00
2013-5-16,86,70,67,65,40,-100,80,63,41,30.00,29.91,6,2,11,0.00
2013-5-17,89,76,66,67,56,-100,92,65,39,30.09,29.99,6,2,11,0.00
2013-5-18,81,73,64,70,66,61,95,79,53,30.16,30.08,6,2,12,0.05
2013-5-19,79,71,67,71,68,66,98,90,70,30.16,30.07,16,4,23,0.31
2013-5-20,78,71,68,72,69,67,98,93,80,30.13,30.04,12,4,16,0.62
2013-5-21,85,74,69,74,70,68,98,89,65,30.06,29.96,9,4,18,0.18
2013-5-22,85,75,68,71,68,66,98,81,55,30.04,29.93,12,6,19,0.18
2013-5-23,83,73,69,72,69,67,98,90,66,29.97,29.84,8,4,15,0.39
2013-5-24,73,66,55,68,55,41,98,71,38,30.18,29.82,11,4,24,0.10
2013-5-25,74,59,45,54,44,39,87,60,31,30.27,30.14,6,2,13,0.00
2013-5-26,74,62,51,55,47,42,83,60,39,30.28,30.18,5,1,11,0.00
2013-5-27,82,69,54,58,52,48,91,59,33,30.28,30.17,8,3,14,0.00
2013-5-28,85,73,61,68,64,58,95,73,52,30.27,30.16,10,5,16,0.00
2013-5-29,87,75,63,67,65,62,97,72,49,30.26,30.17,10,4,18,0.00
2013-5-30,88,76,63,70,65,61,98,71,44,30.28,30.19,8,3,13,0.00
2013-5-31,89,78,66,72,68,65,98,73,47,30.24,30.11,8,4,14,0.00
2013-6-1,89,78,67,70,68,65,98,73,46,30.16,30.04,10,5,20,0.00
2013-6-2,89,78,68,70,67,-100,95,73,46,30.09,29.91,11,6,16,0.00
2013-6-3,84,74,67,76,71,66,97,91,72,29.98,29.84,10,4,15,0.61
2013-6-4,81,72,65,68,66,64,98,81,60,30.10,29.94,9,2,13,0.23
2013-6-5,83,74,64,65,62,58,95,68,44,30.14,30.02,8,3,12,0.00
2013-6-6,77,72,67,73,68,59,98,88,62,30.05,29.85,9,5,19,0.70
2013-6-7,77,72,69,75,70,68,99,97,92,29.87,29.49,8,2,21,3.14
2013-6-8,85,74,68,74,70,67,99,89,65,30.10,29.83,7,2,15,0.21
2013-6-9,88,78,69,75,71,68,98,82,58,30.17,30.07,9,2,17,0.16
2013-6-10,83,75,72,77,73,70,98,92,79,30.12,29.93,11,6,21,1.63
2013-6-11,86,77,70,72,69,66,95,79,54,29.97,29.91,9,4,14,0.64
2013-6-12,91,81,68,77,71,65,92,74,57,29.99,29.88,6,2,11,0.00
2013-6-13,96,82,69,78,73,64,94,76,44,29.88,29.63,19,4,45,0.11
2013-6-14,80,72,62,67,61,57,91,70,49,30.01,29.74,10,3,19,0.11
2013-6-15,86,74,60,67,62,57,92,69,44,30.13,30.01,8,2,13,0.00
2013-6-16,87,77,64,70,64,57,82,66,54,30.15,30.02,12,5,19,0.00
2013-6-17,88,78,70,74,69,65,91,76,54,30.05,29.95,9,5,13,0.00
2013-6-18,86,75,69,75,71,68,98,87,66,29.99,29.77,11,5,22,1.13
2013-6-19,82,74,66,70,68,65,98,83,65,30.12,29.87,5,2,11,1.26
2013-6-20,83,72,65,67,64,59,97,78,53,30.24,30.11,5,2,10,0.01
2013-6-22,79,75,71,73,71,69,97,87,78,30.20,30.12,5,2,10,0.06
2013-6-23,86,76,69,77,72,68,99,89,67,30.22,30.14,6,2,12,0.08
2013-6-24,86,77,71,76,73,70,98,88,69,30.22,30.11,9,4,16,0.04
2013-6-25,89,76,70,77,72,69,97,87,64,30.15,30.03,12,4,19,0.17
2013-6-26,90,76,69,77,72,67,98,87,66,30.06,29.92,8,4,23,0.26
2013-6-27,90,76,68,77,72,67,98,88,58,29.96,29.74,12,4,21,0.26
2013-6-28,92,80,72,77,73,70,98,82,54,29.78,29.60,10,3,19,0.80
2013-6-29,87,77,69,76,72,68,99,86,68,29.75,29.62,8,3,15,1.38
2013-6-30,86,77,72,77,73,69,97,89,70,29.88,29.73,10,4,18,0.15
2013-7-1,83,76,71,76,73,70,98,91,76,30.01,29.85,11,4,17,0.96
2013-7-2,78,74,71,75,72,70,98,96,90,30.20,30.00,9,5,16,0.66
2013-7-3,85,78,73,78,75,71,98,90,75,30.26,30.17,10,4,16,0.02
2013-7-4,89,80,73,77,74,70,98,82,55,30.29,30.19,9,5,14,0.01
2013-7-5,90,79,72,77,74,71,98,86,61,30.29,30.18,9,4,15,0.00
2013-7-6,89,79,73,77,74,72,98,85,61,30.27,30.14,9,3,14,0.00
2013-7-7,90,80,70,76,73,69,98,81,60,30.20,30.08,9,4,14,0.00
2013-7-8,89,77,72,78,72,-100,96,88,70,30.19,30.11,8,3,15,0.01
2013-7-9,88,77,72,79,74,71,98,92,75,30.17,30.12,6,3,10,0.01
2013-7-10,87,77,74,79,72,-100,98,88,73,30.10,29.96,9,3,14,0.68
2013-7-11,84,76,72,77,73,71,98,93,78,30.00,29.89,7,3,11,0.91
2013-7-12,77,73,71,74,72,70,99,96,88,30.02,29.88,7,1,12,0.13
2013-7-13,81,74,71,78,72,70,98,96,89,30.18,30.02,11,2,18,0.11
2013-7-14,88,78,71,78,74,70,99,88,63,30.30,30.18,9,2,15,0.23
2013-7-15,90,80,71,77,73,70,99,83,56,30.33,30.26,4,1,7,0.01
2013-7-16,94,81,71,77,73,69,98,80,54,30.29,30.19,12,1,22,0.45
2013-7-17,93,83,74,79,75,72,99,80,54,30.23,30.12,4,1,9,0.45
2013-7-18,95,83,76,80,76,74,97,83,55,30.16,30.06,6,1,10,0.00
2013-7-19,91,82,75,79,76,73,97,81,60,30.12,30.00,9,4,15,0.00
2013-7-20,90,80,75,77,73,-100,94,82,63,30.05,29.94,10,5,15,0.00
2013-7-21,89,79,72,78,74,71,97,86,66,30.01,29.92,8,3,12,0.93
2013-7-22,88,78,72,78,74,71,99,89,71,29.97,29.84,5,2,9,0.93
2013-7-23,89,80,74,80,74,72,96,83,64,29.87,29.74,8,3,12,0.17
2013-7-24,94,81,71,76,73,67,97,79,51,29.85,29.74,6,2,13,0.47
2013-7-25,80,74,69,72,70,67,98,89,73,30.04,29.82,5,2,9,0.49
2013-7-26,88,75,63,71,66,62,99,77,51,30.11,30.02,6,1,11,0.01
2013-7-27,87,75,69,74,70,68,98,85,59,30.07,29.95,7,3,12,0.38
2013-7-28,87,78,70,77,72,69,99,85,58,30.02,29.93,7,2,11,0.40
2013-7-29,88,78,71,74,71,69,98,82,56,30.16,30.01,5,2,9,0.07
2013-7-30,90,76,66,72,68,63,97,77,48,30.22,30.14,5,1,9,0.07
2013-7-31,84,77,72,76,73,69,97,86,72,30.16,30.02,9,2,19,0.19
2013-8-1,84,75,71,77,72,69,98,91,76,30.04,29.88,4,2,9,0.60
2013-8-2,89,79,71,77,73,69,98,82,60,30.03,29.91,4,1,9,0.17
2013-8-3,90,80,72,78,74,71,98,86,61,30.03,29.92,8,3,14,1.11
2013-8-4,84,76,67,74,70,65,98,83,57,30.03,29.90,7,2,15,1.11
2013-8-5,85,74,65,70,66,62,98,77,53,30.10,30.01,7,2,12,0.01
2013-8-6,84,75,67,72,68,65,97,81,61,30.07,30.01,9,3,14,0.13
2013-8-7,88,77,70,74,70,68,96,80,58,30.11,30.03,7,2,13,0.01
2013-8-8,90,81,70,76,73,69,98,79,58,30.08,30.01,4,2,8,0.00
2013-8-9,92,81,74,79,75,73,98,83,60,30.08,30.00,8,3,14,0.00
2013-8-10,93,81,73,80,76,72,97,85,61,30.11,30.01,7,2,12,0.34
2013-8-11,92,82,72,79,75,71,99,83,62,30.12,30.02,5,1,9,0.34
2013-8-12,93,82,75,78,75,73,98,81,52,30.06,29.95,4,1,9,0.00
2013-8-13,90,78,73,81,73,-100,98,87,68,29.97,29.79,5,2,14,0.58
2013-8-14,76,72,64,73,68,60,98,87,77,30.09,29.83,5,2,11,0.43
2013-8-15,76,62,60,62,46,-100,92,74,57,30.16,30.08,5,1,11,0.00
2013-8-16,72,65,60,64,58,-100,96,85,67,30.18,30.09,3,1,11,0.00
2013-8-17,73,69,65,72,67,62,98,94,87,30.17,30.11,5,2,9,0.35
2013-8-18,83,74,70,75,69,-100,99,88,69,30.21,30.13,5,2,10,0.01
2013-8-19,74,67,67,71,57,-100,98,94,89,30.20,30.11,5,1,9,0.25
2013-8-20,85,75,71,75,70,-100,98,90,70,30.19,30.11,4,1,9,0.02
2013-8-21,89,76,71,78,73,70,99,91,68,30.24,30.12,4,1,8,0.04
2013-8-22,89,78,70,78,73,69,99,85,62,30.16,30.01,7,2,12,0.03
2013-8-23,88,78,70,76,72,69,99,85,62,30.06,29.94,6,2,12,0.01
2013-8-24,83,73,65,69,64,59,94,74,47,30.30,30.06,8,3,13,0.00
2013-8-25,81,69,60,65,59,-100,100,75,44,30.39,30.29,5,2,14,0.00
2013-8-26,75,66,61,61,60,59,100,80,62,30.32,30.13,1,0,3,0.00
2013-8-27,89,73,63,74,64,58,85,75,59,30.14,29.99,4,1,10,0.00
2013-8-28,85,81,76,78,76,74,92,85,75,29.99,29.90,4,1,7,0.00
2013-8-29,87,80,73,76,74,71,93,82,62,30.01,29.85,7,2,13,0.00
2013-8-30,89,75,65,71,68,64,99,81,51,30.07,29.96,3,1,7,0.00
2013-8-31,89,77,67,75,71,66,99,82,59,29.99,29.88,6,2,12,0.00
2013-9-1,92,79,71,79,72,-100,98,83,59,29.92,29.79,8,3,20,1.23
2013-9-2,89,78,71,78,74,70,99,89,65,29.91,29.81,5,1,9,1.32
2013-9-3,87,78,71,79,74,70,98,89,71,29.94,29.82,4,1,12,0.07
2013-9-4,89,76,68,74,71,66,99,86,60,30.09,29.94,5,1,9,0.01
2013-9-5,88,76,66,75,68,62,99,80,46,30.11,30.04,5,1,9,0.01
2013-9-6,83,73,65,67,63,59,93,74,51,30.17,30.08,5,2,11,0.00
2013-9-7,84,71,60,68,63,59,98,79,51,30.14,29.99,4,1,7,0.00
2013-9-8,90,75,64,68,62,-100,95,70,40,30.00,29.92,3,1,7,0.00
2013-9-9,88,78,65,71,69,64,96,75,55,30.16,29.99,5,1,10,0.00
2013-9-10,91,78,67,74,70,66,99,77,49,30.25,30.16,5,1,8,0.00
2013-9-11,90,78,67,73,70,66,97,77,47,30.22,30.09,6,2,10,0.00
2013-9-12,91,77,69,74,70,67,96,81,54,30.10,29.83,9,2,15,0.13
2013-9-13,85,75,69,71,66,57,97,74,50,29.89,29.77,6,2,15,0.13
2013-9-14,78,68,58,58,54,51,93,64,46,30.14,29.89,8,3,15,0.00
2013-9-15,82,65,55,64,56,-100,98,79,50,30.22,30.13,3,1,7,0.00
2013-9-16,85,75,67,74,66,62,98,77,47,30.18,30.05,7,2,14,0.53
2013-9-17,76,68,61,63,57,53,85,70,46,30.32,30.18,7,2,15,0.27
2013-9-18,60,55,51,54,52,50,95,89,78,30.29,30.19,3,1,7,0.00
2013-9-19,80,66,53,66,59,52,98,80,55,30.20,30.09,5,1,7,0.00
2013-9-20,70,67,64,67,64,60,97,91,79,30.10,29.98,6,2,9,0.13
2013-9-21,79,71,65,73,68,64,98,93,78,29.98,29.74,6,2,12,0.41
2013-9-22,77,67,61,70,61,-100,98,83,58,29.90,29.70,10,4,20,2.56
2013-9-23,73,63,55,59,55,51,97,79,55,30.08,29.90,4,1,8,0.01
2013-9-24,76,62,53,61,57,52,99,85,57,30.10,29.96,3,1,7,0.00
2013-9-25,75,64,54,64,59,54,99,86,61,29.97,29.88,5,1,9,0.01
2013-9-26,76,67,59,63,59,53,97,78,46,30.03,29.87,6,2,12,0.01
2013-9-27,75,64,56,62,58,55,97,82,56,30.18,30.03,7,2,13,0.00
2013-9-28,73,63,53,59,56,52,97,80,56,30.25,30.16,7,2,19,0.00
2013-9-29,75,62,53,59,54,-100,98,80,53,30.16,30.03,8,2,13,0.00
2013-9-30,76,63,54,62,57,53,99,83,46,30.10,30.01,5,1,8,0.00
2013-10-1,68,65,55,62,60,54,97,85,81,30.09,30.07,2,0,2,0.00
2013-10-2,85,72,62,66,62,59,93,74,48,30.14,30.06,3,1,8,0.00
2013-10-3,86,73,60,69,64,58,97,77,51,30.14,30.07,5,1,9,0.00
2013-10-4,87,74,62,70,65,61,99,77,50,30.14,30.07,3,1,9,0.00
2013-10-5,90,76,63,69,66,62,98,75,44,30.12,30.04,4,1,9,0.00
2013-10-6,84,73,64,74,69,63,98,88,65,30.09,29.95,7,2,14,0.00
2013-10-7,76,72,64,74,71,62,98,96,92,29.98,29.86,11,4,19,0.56
2013-10-8,65,60,56,62,53,48,94,80,65,30.18,29.97,8,4,19,0.09
2013-10-9,62,59,55,57,54,51,97,85,78,30.17,30.07,10,6,18,0.01
2013-10-10,61,57,54,60,56,53,97,96,94,30.07,29.94,9,5,19,0.06
2013-10-11,68,65,62,63,62,59,97,91,82,29.97,29.91,6,2,10,0.02
2013-10-12,68,65,62,66,63,60,97,93,88,30.08,29.95,4,2,9,0.01
2013-10-13,68,64,62,65,62,-100,98,94,90,30.19,30.07,7,4,11,0.08
2013-10-14,66,63,58,63,61,57,98,94,88,30.23,30.16,6,4,13,0.09
2013-10-15,72,63,54,63,59,53,98,88,73,30.19,30.06,6,2,11,0.01
2013-10-16,70,65,61,64,62,60,98,91,80,30.06,29.97,4,1,6,0.00
2013-10-17,78,68,60,68,64,59,98,88,70,29.98,29.86,9,2,13,0.00
2013-10-18,67,64,59,66,57,48,97,78,59,30.05,29.89,6,2,11,0.00
2013-10-19,70,64,61,66,62,57,97,92,85,29.98,29.84,5,1,8,0.00
2013-10-20,67,56,46,60,47,-100,97,76,48,30.12,29.91,7,2,12,0.00
2013-10-21,69,54,41,52,47,40,98,80,47,30.15,30.01,4,1,6,0.00
2013-10-22,64,59,52,60,56,49,97,88,82,30.02,29.81,4,1,7,0.00
2013-10-23,68,60,49,59,50,35,98,74,38,30.00,29.70,8,4,17,0.00
2013-10-24,60,48,36,41,37,34,92,69,43,30.18,30.00,5,1,12,0.00
2013-10-25,56,48,37,40,33,30,87,59,38,30.36,30.18,8,3,14,0.00
2013-10-26,60,46,29,38,34,28,96,67,38,30.36,30.09,5,1,12,0.00
2013-10-27,69,54,42,48,41,-100,94,66,43,30.13,30.05,6,1,10,0.00
2013-10-28,66,55,47,57,50,-100,97,86,66,30.27,30.12,3,0,5,0.00
2013-10-29,75,59,49,59,54,48,99,86,56,30.34,30.25,2,0,5,0.00
2013-10-30,75,63,54,61,57,53,98,83,57,30.30,30.17,6,2,11,0.00
2013-10-31,76,64,55,65,58,54,98,84,56,30.21,29.96,8,3,14,0.00
2013-11-1,75,69,64,68,66,63,97,90,75,29.95,29.70,10,5,20,1.06
2013-11-2,71,62,54,62,53,46,98,75,45,29.93,29.70,9,2,20,0.02
2013-11-3,63,52,46,46,39,-100,82,65,43,30.35,29.93,7,2,16,0.00
2013-11-4,56,46,38,41,36,33,88,68,44,30.54,30.36,6,2,11,0.00
2013-11-5,59,49,40,52,44,36,88,82,68,30.53,30.42,6,2,11,0.00
2013-11-6,72,58,47,59,53,46,97,85,61,30.42,30.12,3,1,8,0.00
2013-11-7,70,61,47,64,56,35,99,85,55,30.12,29.93,8,2,17,0.09
2013-11-8,57,47,37,36,32,28,79,59,33,30.32,30.10,6,2,15,0.01
2013-11-9,60,47,33,39,32,-100,90,60,34,30.37,30.19,7,2,12,0.00
2013-11-10,73,57,44,44,38,31,76,51,27,30.21,30.06,6,2,13,0.00
2013-11-11,61,48,34,38,32,29,84,56,33,30.34,30.15,6,2,12,0.00
2013-11-12,62,45,35,40,34,23,91,68,43,30.39,30.06,12,4,21,0.00
2013-11-13,45,36,28,25,20,18,85,56,34,30.52,30.40,8,3,17,0.00
2013-11-14,58,43,29,27,24,21,84,52,27,30.46,30.34,8,2,12,0.00
2013-11-15,65,50,34,52,41,24,88,73,44,30.34,30.21,4,1,9,0.00
2013-11-16,72,58,52,60,53,-100,98,86,65,30.27,30.19,4,1,6,0.00
2013-11-17,72,64,54,66,60,53,99,88,70,30.22,29.92,8,2,13,0.11
2013-11-18,76,67,56,68,56,33,98,70,41,29.95,29.80,8,3,18,0.23
2013-11-19,57,50,42,33,31,29,66,50,36,30.30,29.95,9,4,17,0.13
2013-11-20,53,46,39,40,34,30,85,65,53,30.43,30.30,8,3,14,0.00
2013-11-21,64,51,44,52,45,39,91,80,63,30.48,30.37,6,2,10,0.00
2013-11-22,72,61,49,63,56,48,98,86,72,30.39,30.10,10,2,15,0.00
2013-11-23,62,56,44,61,46,-100,98,73,41,30.15,30.03,7,3,14,0.02
2013-11-24,44,34,25,26,12,4,56,40,25,30.53,30.16,10,5,21,0.01
2013-11-25,43,32,20,20,13,9,80,49,25,30.58,30.37,4,1,9,0.01
2013-11-26,67,48,37,66,41,18,99,77,46,30.39,29.56,11,4,21,0.64
2013-11-27,67,42,31,66,40,20,98,90,64,30.15,29.49,11,4,21,1.49
2013-11-28,46,34,24,26,22,17,81,62,41,30.48,30.15,9,2,16,0.01
2013-11-29,52,38,26,29,26,23,93,65,40,30.62,30.47,6,1,12,0.00
2013-11-30,50,38,31,36,30,-100,90,73,56,30.62,30.37,5,2,12,0.00
2013-12-1,60,44,31,44,37,30,96,79,49,30.36,30.03,4,1,7,0.00
2013-12-2,61,49,40,46,42,38,97,81,47,30.02,29.83,4,1,9,0.00
2013-12-3,57,48,38,49,43,36,96,83,67,29.99,29.87,4,1,9,0.00
2013-12-4,65,57,52,59,54,48,97,89,80,30.10,29.98,3,1,7,0.00
2013-12-5,68,61,52,65,60,51,99,96,89,30.15,30.05,6,3,10,0.02
2013-12-6,78,70,65,66,65,63,96,83,66,30.10,29.99,14,7,23,0.01
2013-12-7,69,50,43,66,45,-100,96,85,72,30.44,30.01,8,5,18,0.25
2013-12-8,43,37,34,34,34,31,98,90,68,30.44,30.29,7,3,14,0.17
2013-12-9,47,40,35,47,40,34,99,98,98,30.28,30.06,4,1,8,0.12
2013-12-10,49,45,31,49,43,28,99,93,73,30.32,29.91,7,2,15,0.53
2013-12-11,50,37,25,30,28,24,96,72,43,30.45,30.29,5,1,7,0.02
2013-12-12,45,37,28,30,23,17,83,59,33,30.41,30.26,7,2,12,0.00
2013-12-13,53,39,24,31,24,19,86,60,33,30.38,30.27,8,2,12,0.00
2013-12-14,48,43,39,45,36,-100,97,79,51,30.29,29.78,9,3,17,0.79
2013-12-15,55,44,37,47,39,30,98,84,55,30.07,29.71,6,3,13,0.02
2013-12-16,58,43,32,38,34,28,87,70,45,30.17,30.07,6,2,10,0.01
2013-12-17,63,48,35,41,37,33,93,67,41,30.12,29.89,10,4,22,0.00
2013-12-18,51,43,35,39,24,19,75,50,29,30.29,30.03,8,3,15,0.00
2013-12-19,63,48,34,33,28,24,75,47,25,30.33,30.23,9,3,15,0.00
2013-12-20,68,54,43,56,47,35,93,76,54,30.25,30.13,9,3,19,0.00
2013-12-21,73,61,51,67,56,-100,97,86,71,30.16,30.06,10,4,16,0.00
2013-12-22,78,71,64,68,66,63,97,86,67,30.12,30.04,16,6,26,0.26
2013-12-23,70,62,48,68,60,44,99,95,86,30.14,30.00,10,4,18,1.69
2013-12-24,47,42,31,42,32,18,93,69,52,30.44,30.11,8,4,17,0.01
2013-12-25,41,31,25,24,16,13,83,54,34,30.53,30.39,5,2,10,0.00
2013-12-26,51,38,29,37,31,24,94,77,57,30.39,30.24,4,1,8,0.02
2013-12-27,52,41,32,28,25,21,76,55,35,30.45,30.35,5,1,8,0.01
2013-12-28,60,42,27,37,28,-100,92,63,30,30.40,30.16,4,1,7,0.00
2013-12-29,64,51,45,64,49,35,99,92,58,30.16,29.70,9,3,17,1.63
2013-12-30,56,47,39,45,42,38,99,85,61,30.13,29.92,5,1,8,0.01
2013-12-31,51,44,38,38,32,25,88,65,38,30.35,30.11,7,2,12,0.00
2014-1-1,51,42,33,37,30,25,86,65,40,30.41,30.15,6,1,10,0.00
2014-1-2,48,45,40,47,42,33,98,89,68,30.15,29.58,6,1,12,0.29